GW4497 Weather Reports


time (UTC)temp
C
wind
direction
speed
KPH
gust
KPH
rain 1hr
cm
rain 24hr
cm
rain mn
cm
humidity
%
barometer
mb
20260507164503 16 114 8.0 17.7 0.00 0.00 0.00 70 1012.7
20260507164003 16 106 8.0 19.3 0.00 0.00 0.00 69 1012.3
20260507163503 16 113 9.7 20.9 0.00 0.00 0.00 69 1012.6
20260507163003 16 125 8.0 20.9 0.00 0.00 0.00 69 1012.6
20260507162503 16 134 8.0 17.7 0.00 0.00 0.00 68 1012.3
20260507162216 16 132 8.0 14.5 0.00 0.00 0.00 68 1012.5
20260507161503 16 120 8.0 19.3 0.00 0.00 0.00 68 1012.5
20260507161003 16 126 8.0 20.9 0.00 0.00 0.00 68 1012.6
20260507160717 16 139 9.7 24.1 0.00 0.00 0.00 68 1012.5
20260507160003 16 139 11.3 25.7 0.00 0.00 0.00 65 1012.6
20260507155717 16 129 11.3 25.7 0.00 0.00 0.00 66 1012.7
20260507155003 16 117 9.7 19.3 0.00 0.00 0.00 67 1012.7
20260507154717 16 136 9.7 22.5 0.00 0.00 0.00 67 1012.8
20260507154003 16 157 11.3 22.5 0.00 0.00 0.00 67 1012.6
20260507153504 16 136 12.9 22.5 0.00 0.00 0.00 67 1012.7
20260507153218 16 132 12.9 30.6 0.00 0.00 0.00 66 1012.9
20260507152503 16 157 12.9 30.6 0.00 0.00 0.00 66 1012.6
20260507152003 17 156 12.9 25.7 0.00 0.00 0.00 65 1012.7
20260507151503 17 143 12.9 25.7 0.00 0.00 0.00 64 1012.7
20260507151003 17 144 12.9 25.7 0.00 0.00 0.00 62 1012.8
20260507150503 17 154 11.3 25.7 0.00 0.00 0.00 61 1012.9
20260507150218 17 149 9.7 24.1 0.00 0.00 0.00 60 1012.9
20260507145503 17 106 8.0 20.9 0.00 0.00 0.00 59 1012.3
20260507145003 17 116 8.0 16.1 0.00 0.00 0.00 60 1012.6
20260507144503 17 112 8.0 16.1 0.00 0.00 0.00 60 1012.3
20260507144003 17 106 9.7 16.1 0.00 0.00 0.00 60 1012.7
20260507143503 18 108 8.0 17.7 0.00 0.00 0.00 59 1012.6
20260507143003 17 111 8.0 19.3 0.00 0.00 0.00 61 1012.7
20260507142503 17 111 9.7 20.9 0.00 0.00 0.00 60 1012.7
20260507142003 17 134 9.7 20.9 0.00 0.00 0.00 60 1012.9
20260507141503 17 154 9.7 20.9 0.00 0.00 0.00 61 1012.9
20260507141003 17 148 9.7 20.9 0.00 0.00 0.00 60 1013.2
20260507140503 17 134 11.3 25.7 0.00 0.00 0.00 61 1013.1
20260507140003 17 125 11.3 25.7 0.00 0.00 0.00 60 1013.1
20260507135503 17 125 11.3 22.5 0.00 0.00 0.00 60 1013.2
20260507135003 17 119 11.3 22.5 0.00 0.00 0.00 59 1013.4
20260507134503 17 119 11.3 22.5 0.00 0.00 0.00 59 1013.6
20260507134003 17 137 9.7 22.5 0.00 0.00 0.00 60 1013.5
20260507133503 17 141 9.7 22.5 0.00 0.00 0.00 59 1013.4
20260507133003 17 133 9.7 22.5 0.00 0.00 0.00 58 1013.6
20260507132503 17 141 12.9 25.7 0.00 0.00 0.00 58 1013.7
20260507132003 17 142 12.9 27.4 0.00 0.00 0.00 60 1013.7
20260507131718 17 140 12.9 27.4 0.00 0.00 0.00 58 1013.7
20260507131003 17 133 12.9 29.0 0.00 0.00 0.00 58 1013.8
20260507130503 17 120 12.9 32.2 0.00 0.00 0.00 57 1013.9
20260507130004 17 134 14.5 33.8 0.00 0.00 0.00 60 1013.9
20260507125503 17 145 14.5 33.8 0.00 0.00 0.00 61 1013.9
20260507125003 17 146 14.5 29.0 0.00 0.00 0.00 61 1013.9
20260507124503 17 154 16.1 29.0 0.00 0.00 0.00 61 1014.1
20260507124003 17 148 14.5 29.0 0.00 0.00 0.00 60 1014.1
20260507123503 17 146 14.5 32.2 0.00 0.00 0.00 60 1014.1
20260507123003 17 156 14.5 32.2 0.00 0.00 0.00 60 1014.0
20260507122718 17 160 14.5 32.2 0.00 0.00 0.00 61 1014.1
20260507122004 17 151 12.9 29.0 0.00 0.00 0.00 61 1014.3
20260507121503 17 139 12.9 27.4 0.00 0.00 0.00 61 1014.1
20260507121003 17 131 14.5 32.2 0.00 0.00 0.00 61 1014.0
20260507120503 17 130 16.1 35.4 0.00 0.00 0.00 60 1014.2
20260507120217 17 130 16.1 35.4 0.00 0.00 0.00 60 1014.3
20260507115718 17 141 14.5 30.6 0.00 0.00 0.00 61 1014.1
20260507115003 17 138 14.5 29.0 0.00 0.00 0.00 60 1014.2
20260507114503 17 150 12.9 29.0 0.00 0.00 0.00 60 1013.9
20260507114003 17 145 11.3 25.7 0.00 0.00 0.00 58 1013.9
20260507113503 18 131 12.9 25.7 0.00 0.00 0.00 60 1013.9
20260507113003 17 135 12.9 29.0 0.00 0.00 0.00 58 1014.1
20260507112503 17 134 12.9 30.6 0.00 0.00 0.00 59 1014.1
20260507112003 17 132 12.9 30.6 0.00 0.00 0.00 60 1014.0
20260507111718 17 138 12.9 25.7 0.00 0.00 0.00 63 1014.0
20260507111003 17 135 14.5 25.7 0.00 0.00 0.00 62 1014.3
20260507110503 16 141 12.9 25.7 0.00 0.00 0.00 63 1014.3
20260507110216 17 162 12.9 24.1 0.00 0.00 0.00 63 1014.3
20260507105503 16 186 11.3 24.1 0.00 0.00 0.00 66 1014.3
20260507105003 16 194 12.9 25.7 0.00 0.00 0.00 64 1014.7
20260507104504 16 189 12.9 25.7 0.00 0.00 0.00 66 1014.6
20260507104003 17 162 11.3 24.1 0.00 0.00 0.00 62 1014.4
20260507103503 17 149 11.3 22.5 0.00 0.00 0.00 63 1014.5
20260507103003 17 147 11.3 22.5 0.00 0.00 0.00 65 1014.5
20260507102717 17 152 11.3 22.5 0.00 0.00 0.00 66 1014.4
20260507102003 17 176 11.3 20.9 0.00 0.00 0.00 64 1014.5
20260507101503 17 140 9.7 20.9 0.00 0.00 0.00 64 1014.5
20260507101003 17 140 8.0 17.7 0.00 0.00 0.00 61 1014.7
20260507100503 17 151 8.0 19.3 0.00 0.00 0.00 61 1014.5
20260507100004 16 143 8.0 19.3 0.00 0.00 0.00 63 1014.8
20260507095503 16 141 6.4 17.7 0.00 0.00 0.00 63 1014.7
20260507095003 16 140 9.7 20.9 0.00 0.00 0.00 64 1014.6
20260507094717 16 135 9.7 20.9 0.00 0.00 0.00 64 1014.7
20260507094003 17 117 8.0 17.7 0.00 0.00 0.00 62 1014.7
20260507093503 16 119 8.0 17.7 0.00 0.00 0.00 65 1014.9
20260507093003 16 135 6.4 16.1 0.00 0.00 0.00 67 1014.8
20260507092503 16 132 8.0 17.7 0.00 0.00 0.00 68 1014.8
20260507092003 16 124 9.7 17.7 0.00 0.00 0.00 68 1014.7
20260507091503 16 135 9.7 20.9 0.00 0.00 0.00 69 1014.8
20260507091218 16 153 8.0 20.9 0.00 0.00 0.00 69 1014.9
20260507090503 16 169 6.4 12.9 0.00 0.00 0.00 69 1014.4
20260507090004 16 146 8.0 14.5 0.00 0.00 0.00 66 1014.6
20260507085503 16 121 6.4 14.5 0.00 0.00 0.00 67 1014.6
20260507085003 16 92 3.2 8.0 0.00 0.00 0.00 68 1014.6
20260507084717 16 89 3.2 8.0 0.00 0.00 0.00 68 1014.6
20260507084003 16 139 4.8 12.9 0.00 0.00 0.00 70 1014.6
20260507083503 16 160 3.2 12.9 0.00 0.00 0.00 70 1014.8
20260507083004 16 145 3.2 6.4 0.00 0.00 0.00 68 1014.6
20260507082503 16 81 3.2 11.3 0.00 0.00 0.00 69 1014.7
20260507082003 16 88 4.8 11.3 0.00 0.00 0.00 70 1014.8
20260507081503 15 82 4.8 9.7 0.00 0.00 0.00 70 1014.9
20260507081003 16 80 4.8 9.7 0.00 0.00 0.00 69 1014.7
20260507080503 15 117 3.2 8.0 0.00 0.00 0.00 70 1014.6
20260507080003 15 103 4.8 11.3 0.00 0.00 0.00 74 1014.8
20260507075503 15 95 6.4 11.3 0.00 0.00 0.00 74 1014.8
20260507075003 15 89 4.8 11.3 0.00 0.00 0.00 73 1014.7
20260507074503 15 91 6.4 11.3 0.00 0.00 0.00 74 1014.8
20260507074003 15 102 6.4 11.3 0.00 0.00 0.00 74 1014.7
20260507073503 15 103 6.4 11.3 0.00 0.00 0.00 74 1014.9
20260507073217 15 112 4.8 9.7 0.00 0.00 0.00 75 1014.9
20260507072503 14 172 1.6 4.8 0.00 0.00 0.00 79 1015.0
20260507072003 14 201 1.6 4.8 0.00 0.00 0.00 79 1014.9
20260507071504 14 169 3.2 8.0 0.00 0.00 0.00 80 1014.9
20260507071003 14 148 3.2 8.0 0.00 0.00 0.00 79 1014.7
20260507070503 14 130 3.2 6.4 0.00 0.00 0.00 79 1014.6
20260507070217 14 135 1.6 6.4 0.00 0.00 0.00 79 1014.7
20260507065718 14 93 1.6 6.4 0.00 0.00 0.00 78 1014.5
20260507065003 13 149 1.6 4.8 0.00 0.00 0.00 81 1014.5
20260507064718 13 176 1.6 4.8 0.00 0.00 0.00 82 1014.7
20260507064003 12 213 1.6 3.2 0.00 0.00 0.00 83 1014.5
20260507063503 12 207 0.0 3.2 0.00 0.00 0.00 83 1014.4
20260507063003 12 201 0.0 3.2 0.00 0.00 0.00 85 1014.4
20260507062503 11 190 0.0 3.2 0.00 0.00 0.00 87 1014.3
20260507062003 11 228 0.0 3.2 0.00 0.00 0.00 87 1014.2
20260507061718 10 331 0.0 3.2 0.00 0.00 0.00 88 1014.3
20260507061003 10 284 0.0 3.2 0.00 0.00 0.00 88 1014.1
20260507060503 10 121 1.6 4.8 0.00 0.00 0.00 89 1014.2
20260507060217 10 112 1.6 4.8 0.00 0.00 0.00 89 1014.4
20260507055503 10 149 0.0 3.2 0.00 0.00 0.00 90 1014.4
20260507055216 9 195 0.0 3.2 0.00 0.00 0.00 90 1014.2
20260507054503 9 28 1.6 3.2 0.00 0.00 0.00 91 1014.3
20260507054003 10 21 0.0 3.2 0.00 0.00 0.00 91 1014.3
20260507053717 8 288 0.0 3.2 0.00 0.00 0.00 91 1014.2
20260507053004 8 210 0.0 3.2 0.00 0.00 0.00 91 1014.3
20260507052717 8 150 0.0 3.2 0.00 0.00 0.00 91 1014.1
20260507052003 8 171 0.0 4.8 0.00 0.00 0.00 92 1014.0
20260507051504 8 173 1.6 4.8 0.00 0.00 0.00 92 1013.8
20260507051003 8 250 0.0 3.2 0.00 0.00 0.00 92 1013.7
20260507050503 8 346 0.0 3.2 0.00 0.00 0.00 92 1013.9
20260507050003 8 345 0.0 3.2 0.00 0.00 0.00 92 1013.9
20260507045503 8 149 1.6 4.8 0.00 0.00 0.00 92 1013.8
20260507045218 8 107 1.6 4.8 0.00 0.00 0.00 91 1013.9
20260507044503 8 106 3.2 6.4 0.00 0.00 0.00 92 1013.8
20260507044218 8 126 1.6 6.4 0.00 0.00 0.00 92 1013.8
20260507043503 8 249 1.6 3.2 0.00 0.00 0.00 92 1013.6
20260507043003 8 181 1.6 6.4 0.00 0.00 0.00 91 1013.6
20260507042503 8 164 1.6 6.4 0.00 0.00 0.00 92 1013.6
20260507042003 8 173 1.6 3.2 0.00 0.00 0.00 91 1013.8
20260507041503 8 18 1.6 3.2 0.00 0.00 0.00 92 1013.7
20260507041003 8 334 1.6 3.2 0.00 0.00 0.00 92 1013.7
20260507040717 8 333 1.6 3.2 0.00 0.00 0.00 92 1013.8
20260507040003 8 117 1.6 3.2 0.00 0.00 0.00 91 1013.7
20260507035503 8 161 1.6 3.2 0.00 0.00 0.00 92 1013.6
20260507035003 8 185 0.0 3.2 0.00 0.00 0.00 91 1013.9
20260507034503 8 215 1.6 6.4 0.00 0.00 0.00 91 1013.7
20260507034003 8 2 1.6 6.4 0.00 0.00 0.00 91 1013.7
20260507033503 9 348 3.2 6.4 0.00 0.00 0.00 92 1013.7
20260507033003 8 286 1.6 4.8 0.00 0.00 0.00 91 1013.9
20260507032503 9 107 1.6 4.8 0.00 0.00 0.00 91 1014.0
20260507032003 9 102 1.6 4.8 0.00 0.00 0.00 92 1013.7
20260507031503 9 50 1.6 4.8 0.00 0.00 0.00 91 1013.9
20260507031218 9 351 1.6 3.2 0.00 0.00 0.00 91 1013.8
20260507030503 9 288 1.6 3.2 0.00 0.00 0.00 91 1013.8
20260507030003 9 313 1.6 4.8 0.00 0.00 0.00 91 1014.0
20260507025503 10 46 1.6 4.8 0.00 0.00 0.00 91 1013.9
20260507025217 10 65 1.6 4.8 0.00 0.00 0.00 91 1013.7
20260507024716 10 268 1.6 3.2 0.00 0.00 0.00 91 1013.6
20260507024003 10 74 3.2 6.4 0.00 0.00 0.00 91 1013.6
20260507023503 10 99 3.2 6.4 0.00 0.00 0.00 91 1013.8
20260507023003 10 142 1.6 6.4 0.00 0.00 0.00 91 1013.8
20260507022718 10 213 0.0 3.2 0.00 0.00 0.00 91 1013.7
20260507022217 10 309 0.0 3.2 0.00 0.00 0.00 91 1013.8
20260507021718 10 55 1.6 4.8 0.00 0.00 0.00 91 1013.9
20260507021003 10 117 1.6 6.4 0.00 0.00 0.00 91 1013.7
20260507020503 10 129 1.6 6.4 0.00 0.00 0.00 91 1013.8
20260507020003 10 139 1.6 6.4 0.00 0.00 0.00 91 1014.0
20260507015718 10 175 0.0 3.2 0.00 0.00 0.00 91 1014.1
20260507015217 10 266 1.6 4.8 0.00 0.00 0.00 91 1013.8
20260507014503 10 100 3.2 6.4 0.00 0.00 0.00 91 1014.1
20260507014217 11 120 3.2 6.4 0.00 0.00 0.00 91 1013.9
20260507013503 11 139 1.6 6.4 0.00 0.00 0.00 91 1014.0
20260507013003 11 333 1.6 3.2 0.00 0.00 0.00 91 1014.1
20260507012503 11 313 1.6 3.2 0.00 0.00 0.00 90 1014.0
20260507012003 11 281 1.6 4.8 0.00 0.00 0.00 90 1014.0
20260507011503 11 133 1.6 4.8 0.00 0.00 0.00 90 1013.9
20260507010503 11 26 3.2 6.4 0.00 0.00 0.00 90 1013.9
20260507010003 11 311 3.2 6.4 0.00 0.00 0.00 90 1013.8
20260507005718 11 288 3.2 6.4 0.00 0.00 0.00 90 1014.3
20260507005003 11 357 1.6 6.4 0.00 0.00 0.00 90 1014.0
20260507004718 12 89 3.2 6.4 0.00 0.00 0.00 90 1013.9
20260507004003 12 107 3.2 6.4 0.00 0.00 0.00 90 1014.1
20260507003503 12 33 3.2 6.4 0.00 0.00 0.00 89 1014.0
20260507003003 12 355 3.2 6.4 0.00 0.00 0.00 89 1014.1
20260507002503 12 311 1.6 6.4 0.00 0.00 0.00 89 1014.2
20260507002003 12 336 3.2 6.4 0.00 0.00 0.00 89 1014.2
20260507001503 12 10 3.2 6.4 0.00 0.00 0.00 89 1014.4
20260507001003 12 33 1.6 6.4 0.00 0.00 0.00 88 1014.2
20260507000503 12 29 1.6 6.4 0.00 0.00 0.00 88 1014.3
20260507000003 13 10 3.2 9.7 0.00 0.00 0.00 88 1014.4
20260506235503 13 356 3.2 9.7 0.00 0.00 0.00 88 1014.1
20260506235003 13 301 1.6 4.8 0.00 0.00 0.00 88 1014.3
20260506234503 13 40 1.6 4.8 0.00 0.00 0.00 87 1014.3
20260506234003 13 17 3.2 6.4 0.00 0.00 0.00 87 1014.2
20260506233503 13 355 3.2 6.4 0.00 0.00 0.00 87 1014.1
20260506233003 13 348 3.2 8.0 0.00 0.00 0.00 87 1014.3
20260506232503 13 345 4.8 8.0 0.00 0.00 0.00 87 1014.5
20260506232003 13 352 3.2 6.4 0.00 0.00 0.00 87 1014.5
20260506231503 13 358 3.2 6.4 0.00 0.00 0.00 86 1014.5
20260506231003 13 10 3.2 6.4 0.00 0.00 0.00 86 1014.5
20260506230503 13 90 3.2 6.4 0.00 0.00 0.00 85 1014.6
20260506230003 13 165 3.2 6.4 0.00 0.00 0.00 85 1014.5
20260506225717 13 184 3.2 6.4 0.00 0.00 0.00 85 1014.4
20260506225003 13 204 3.2 6.4 0.00 0.00 0.00 84 1014.5
20260506224503 14 333 3.2 6.4 0.00 0.00 0.00 85 1014.2
20260506224003 14 359 3.2 6.4 0.00 0.00 0.00 85 1014.3
20260506223503 14 10 3.2 9.7 0.00 0.00 0.00 84 1014.5
20260506223003 14 15 4.8 9.7 0.00 0.00 0.00 84 1014.6
20260506222503 14 12 8.0 12.9 0.00 0.00 0.00 83 1014.4
20260506222218 14 11 8.0 12.9 0.00 0.00 0.00 84 1014.4
20260506221504 14 349 3.2 11.3 0.00 0.00 0.00 85 1014.4
20260506221003 14 325 1.6 6.4 0.00 0.00 0.00 85 1014.5
20260506220503 14 246 3.2 6.4 0.00 0.00 0.00 85 1014.4
20260506220003 14 176 3.2 8.0 0.00 0.00 0.00 85 1014.1
20260506215503 14 187 3.2 8.0 0.00 0.00 0.00 85 1014.2
20260506215003 14 139 3.2 6.4 0.00 0.00 0.00 85 1014.3
20260506214503 14 74 3.2 8.0 0.00 0.00 0.00 85 1014.0
20260506214003 14 90 3.2 8.0 0.00 0.00 0.00 85 1014.1
20260506213503 14 60 1.6 8.0 0.00 0.00 0.00 85 1014.1
20260506213003 14 277 1.6 4.8 0.00 0.00 0.00 84 1013.9
20260506212503 14 252 1.6 4.8 0.00 0.00 0.00 84 1014.2
20260506212003 14 252 1.6 6.4 0.00 0.00 0.00 84 1014.2
20260506211503 14 3 3.2 6.4 0.00 0.00 0.00 83 1014.1
20260506211003 15 358 3.2 6.4 0.00 0.00 0.00 84 1014.2
20260506210503 14 313 1.6 4.8 0.00 0.00 0.00 83 1014.0
20260506210003 15 43 1.6 4.8 0.00 0.00 0.00 83 1014.1
20260506205503 15 3 1.6 3.2 0.00 0.00 0.00 83 1014.0
20260506205003 15 276 1.6 6.4 0.00 0.00 0.00 83 1013.9
20260506204503 15 316 1.6 6.4 0.00 0.00 0.00 82 1014.0
20260506204003 15 347 3.2 6.4 0.00 0.00 0.00 83 1013.9
20260506203503 15 309 3.2 6.4 0.00 0.00 0.00 83 1013.7
20260506203003 15 316 3.2 4.8 0.00 0.00 0.00 82 1013.8
20260506202503 15 353 1.6 6.4 0.00 0.00 0.00 82 1013.7
20260506202217 15 143 3.2 6.4 0.00 0.00 0.00 82 1013.8
20260506201503 15 122 3.2 6.4 0.00 0.00 0.00 82 1013.5
20260506201003 15 63 3.2 6.4 0.00 0.00 0.00 82 1013.5
20260506200503 15 99 3.2 8.0 0.00 0.00 0.00 81 1013.4
20260506200003 15 148 3.2 8.0 0.00 0.00 0.00 81 1013.6
20260506195718 15 153 3.2 8.0 0.00 0.00 0.00 81 1013.3
20260506195217 15 160 1.6 6.4 0.00 0.00 0.00 81 1013.1
20260506194503 16 137 4.8 12.9 0.00 0.00 0.00 81 1013.0
20260506194217 16 131 4.8 12.9 0.00 0.00 0.00 81 1013.0
20260506193504 16 141 4.8 9.7 0.00 0.00 0.00 80 1012.9
20260506193003 16 160 4.8 9.7 0.00 0.00 0.00 79 1012.7
20260506192503 16 160 4.8 9.7 0.00 0.00 0.00 79 1012.8
20260506192003 16 135 4.8 11.3 0.00 0.00 0.00 78 1012.7
20260506191718 16 129 4.8 11.3 0.00 0.00 0.00 79 1012.8
20260506191003 16 132 6.4 14.5 0.00 0.00 0.00 78 1012.7
20260506190503 16 139 4.8 14.5 0.00 0.00 0.00 78 1012.9
20260506190003 16 155 4.8 12.9 0.00 0.00 0.00 76 1012.6
20260506185503 16 156 6.4 16.1 0.00 0.00 0.00 77 1012.6
20260506185216 16 158 6.4 16.1 0.00 0.00 0.00 77 1012.5
20260506184503 16 163 8.0 16.1 0.00 0.00 0.00 76 1012.2
20260506184216 16 155 8.0 16.1 0.00 0.00 0.00 78 1012.3
20260506183503 16 153 8.0 14.5 0.00 0.00 0.00 77 1012.3
20260506183003 16 152 9.7 24.1 0.00 0.00 0.00 77 1012.3
20260506182503 16 144 11.3 24.1 0.00 0.00 0.00 76 1012.0
20260506182003 16 158 9.7 19.3 0.00 0.00 0.00 76 1011.9
20260506181503 16 161 9.7 20.9 0.00 0.00 0.00 76 1011.9
20260506181003 16 153 11.3 20.9 0.00 0.00 0.00 74 1011.7
20260506180503 16 157 9.7 19.3 0.00 0.00 0.00 73 1011.8
20260506180004 16 153 9.7 25.7 0.00 0.00 0.00 73 1011.9
20260506175717 16 150 9.7 25.7 0.00 0.00 0.00 72 1011.9
20260506175003 16 153 12.9 24.1 0.00 0.00 0.00 75 1011.9
20260506174503 16 157 11.3 24.1 0.00 0.00 0.00 73 1011.6
20260506174003 16 146 11.3 20.9 0.00 0.00 0.00 74 1011.9
20260506173503 16 140 9.7 20.9 0.00 0.00 0.00 73 1011.7
20260506173003 17 153 9.7 24.1 0.00 0.00 0.00 73 1011.6
20260506172503 16 146 14.5 24.1 0.00 0.00 0.00 73 1011.7
20260506172003 16 149 14.5 22.5 0.00 0.00 0.00 73 1011.5
20260506171503 17 167 11.3 27.4 0.00 0.00 0.00 71 1011.5
20260506171003 17 204 9.7 27.4 0.00 0.00 0.00 70 1011.6
20260506170503 17 212 8.0 17.7 0.00 0.00 0.00 68 1011.5
20260506170003 17 207 8.0 17.7 0.00 0.00 0.00 65 1011.3
20260506165503 17 168 8.0 22.5 0.00 0.00 0.00 61 1011.4
20260506165003 17 136 9.7 22.5 0.00 0.00 0.00 60 1011.5